Time,TemperatureF,DewpointF,PressureIn,WindDirection,WindDirectionDegrees,WindSpeedMPH,WindSpeedGustMPH,Humidity,HourlyPrecipIn,Conditions,Clouds,dailyrainin,SoftwareType,DateUTC
2013-10-16 00:04:00,44.5,44.0,29.86,WNW,286,3.0,8.0,97,0.00,,,0.10,weatherlink.com 1.10,2013-10-16 05:04:00,
2013-10-16 00:19:00,44.4,44.0,29.86,SSW,207,0.0,7.0,97,0.00,,,0.10,weatherlink.com 1.10,2013-10-16 05:19:00,
2013-10-16 00:34:00,44.4,44.0,29.86,West,269,1.0,8.0,97,0.00,,,0.10,weatherlink.com 1.10,2013-10-16 05:34:00,
2013-10-16 00:49:00,44.3,44.0,29.87,WNW,282,1.0,6.0,97,0.00,,,0.10,weatherlink.com 1.10,2013-10-16 05:49:00,
2013-10-16 01:04:00,44.1,43.0,29.88,NE,41,3.0,7.0,97,0.00,,,0.00,weatherlink.com 1.10,2013-10-16 06:04:00,
2013-10-16 01:19:00,44.0,43.0,29.88,WNW,288,2.0,7.0,97,0.00,,,0.00,weatherlink.com 1.10,2013-10-16 06:19:00,
2013-10-16 01:34:00,43.9,43.0,29.88,NW,322,0.0,6.0,97,0.00,,,0.00,weatherlink.com 1.10,2013-10-16 06:34:00,
2013-10-16 01:49:00,43.8,43.0,29.89,WNW,290,4.0,6.0,97,0.00,,,0.00,weatherlink.com 1.10,2013-10-16 06:49:00,
2013-10-16 02:04:00,43.7,43.0,29.89,WNW,292,1.0,9.0,97,0.00,,,0.00,weatherlink.com 1.10,2013-10-16 07:04:00,
2013-10-16 02:19:00,43.7,43.0,29.89,NW,306,2.0,6.0,97,0.00,,,0.00,weatherlink.com 1.10,2013-10-16 07:19:00,
2013-10-16 02:34:00,43.6,43.0,29.89,West,274,1.0,8.0,97,0.01,,,0.01,weatherlink.com 1.10,2013-10-16 07:34:00,
2013-10-16 02:49:00,43.5,43.0,29.89,NE,47,2.0,6.0,97,0.01,,,0.01,weatherlink.com 1.10,2013-10-16 07:49:00,
2013-10-16 03:04:00,43.5,43.0,29.89,West,261,0.0,7.0,96,0.01,,,0.01,weatherlink.com 1.10,2013-10-16 08:04:00,
2013-10-16 03:19:00,43.6,43.0,29.89,WNW,291,0.0,8.0,96,0.01,,,0.01,weatherlink.com 1.10,2013-10-16 08:19:00,
2013-10-16 03:34:00,43.6,43.0,29.89,West,276,0.0,6.0,96,0.00,,,0.01,weatherlink.com 1.10,2013-10-16 08:34:00,
2013-10-16 03:49:00,43.7,43.0,29.89,NW,314,0.0,8.0,96,0.00,,,0.01,weatherlink.com 1.10,2013-10-16 08:49:00,
2013-10-16 04:04:00,43.7,43.0,29.90,NW,310,0.0,4.0,96,0.00,,,0.01,weatherlink.com 1.10,2013-10-16 09:04:00,
2013-10-16 04:19:00,43.7,43.0,29.90,NE,34,2.0,7.0,96,0.00,,,0.01,weatherlink.com 1.10,2013-10-16 09:19:00,
2013-10-16 04:34:00,43.6,43.0,29.91,WNW,285,1.0,8.0,96,0.00,,,0.01,weatherlink.com 1.10,2013-10-16 09:34:00,
2013-10-16 04:50:00,43.6,43.0,29.91,WNW,298,1.0,5.0,96,0.00,,,0.01,weatherlink.com 1.10,2013-10-16 09:50:00,
2013-10-16 05:05:00,43.6,43.0,29.91,WNW,291,1.0,7.0,96,0.00,,,0.01,weatherlink.com 1.10,2013-10-16 10:05:00,
2013-10-16 05:20:00,43.7,42.0,29.92,WSW,257,1.0,9.0,95,0.00,,,0.01,weatherlink.com 1.10,2013-10-16 10:20:00,
2013-10-16 05:35:00,43.7,42.0,29.92,NNW,335,2.0,6.0,95,0.00,,,0.01,weatherlink.com 1.10,2013-10-16 10:35:00,
2013-10-16 05:50:00,43.8,43.0,29.92,NW,307,2.0,6.0,95,0.00,,,0.01,weatherlink.com 1.10,2013-10-16 10:50:00,
2013-10-16 06:05:00,43.7,42.0,29.92,WNW,299,2.0,4.0,95,0.00,,,0.01,weatherlink.com 1.10,2013-10-16 11:05:00,
2013-10-16 06:20:00,43.7,42.0,29.92,WSW,248,0.0,8.0,95,0.00,,,0.01,weatherlink.com 1.10,2013-10-16 11:20:00,
2013-10-16 06:35:00,43.7,42.0,29.93,North,8,0.0,5.0,95,0.00,,,0.01,weatherlink.com 1.10,2013-10-16 11:35:00,
2013-10-16 06:50:00,43.6,42.0,29.93,ENE,58,0.0,4.0,95,0.00,,,0.01,weatherlink.com 1.10,2013-10-16 11:50:00,
2013-10-16 07:05:00,43.4,42.0,29.93,WNW,293,1.0,5.0,96,0.00,,,0.01,weatherlink.com 1.10,2013-10-16 12:05:00,
2013-10-16 07:20:00,43.4,42.0,29.94,WNW,302,0.0,7.0,96,0.00,,,0.01,weatherlink.com 1.10,2013-10-16 12:20:00,
2013-10-16 07:35:00,43.4,42.0,29.94,SW,234,2.0,6.0,96,0.00,,,0.01,weatherlink.com 1.10,2013-10-16 12:35:00,
2013-10-16 07:50:00,43.5,43.0,29.94,NNW,342,1.0,9.0,96,0.00,,,0.01,weatherlink.com 1.10,2013-10-16 12:50:00,
2013-10-16 08:05:00,43.5,43.0,29.95,NW,311,0.0,4.0,96,0.00,,,0.01,weatherlink.com 1.10,2013-10-16 13:05:00,
2013-10-16 08:20:00,43.4,42.0,29.95,NW,315,1.0,4.0,96,0.00,,,0.01,weatherlink.com 1.10,2013-10-16 13:20:00,
2013-10-16 08:35:00,43.5,43.0,29.95,NNE,27,0.0,3.0,96,0.00,,,0.01,weatherlink.com 1.10,2013-10-16 13:35:00,
2013-10-16 08:50:00,43.5,43.0,29.95,ENE,58,2.0,5.0,96,0.00,,,0.01,weatherlink.com 1.10,2013-10-16 13:50:00,
2013-10-16 09:05:00,43.7,43.0,29.96,West,281,2.0,4.0,96,0.01,,,0.02,weatherlink.com 1.10,2013-10-16 14:05:00,
2013-10-16 09:20:00,43.5,43.0,29.96,SSE,149,0.0,6.0,96,0.01,,,0.02,weatherlink.com 1.10,2013-10-16 14:20:00,
2013-10-16 09:35:00,43.4,42.0,29.97,NW,314,0.0,4.0,96,0.01,,,0.02,weatherlink.com 1.10,2013-10-16 14:35:00,
2013-10-16 09:50:00,43.6,43.0,29.97,West,280,2.0,6.0,96,0.01,,,0.02,weatherlink.com 1.10,2013-10-16 14:50:00,
2013-10-16 10:05:00,43.6,42.0,29.98,North,8,2.0,5.0,95,0.00,,,0.02,weatherlink.com 1.10,2013-10-16 15:05:00,
2013-10-16 10:20:00,43.5,42.0,29.98,ENE,64,1.0,7.0,95,0.00,,,0.02,weatherlink.com 1.10,2013-10-16 15:20:00,
2013-10-16 10:35:00,43.2,42.0,29.98,WNW,288,1.0,5.0,95,0.00,,,0.02,weatherlink.com 1.10,2013-10-16 15:35:00,
2013-10-16 10:50:00,43.3,42.0,29.98,West,278,3.0,6.0,94,0.00,,,0.02,weatherlink.com 1.10,2013-10-16 15:50:00,
2013-10-16 11:05:00,43.4,42.0,29.99,WNW,292,3.0,5.0,93,0.00,,,0.02,weatherlink.com 1.10,2013-10-16 16:05:00,
2013-10-16 11:20:00,43.6,42.0,29.99,West,272,0.0,6.0,93,0.00,,,0.02,weatherlink.com 1.10,2013-10-16 16:20:00,
2013-10-16 11:35:00,43.9,42.0,29.99,WNW,301,0.0,6.0,92,0.00,,,0.02,weatherlink.com 1.10,2013-10-16 16:35:00,
2013-10-16 11:50:00,44.4,42.0,29.99,NNE,13,1.0,6.0,91,0.00,,,0.02,weatherlink.com 1.10,2013-10-16 16:50:00,
2013-10-16 12:05:00,44.6,42.0,29.99,NNE,25,0.0,6.0,90,0.00,,,0.02,weatherlink.com 1.10,2013-10-16 17:05:00,
2013-10-16 12:20:00,45.0,42.0,30.00,NW,313,1.0,6.0,88,0.00,,,0.02,weatherlink.com 1.10,2013-10-16 17:20:00,
2013-10-16 12:35:00,45.2,42.0,29.99,ENE,63,1.0,5.0,88,0.00,,,0.02,weatherlink.com 1.10,2013-10-16 17:35:00,
2013-10-16 12:50:00,45.5,42.0,29.99,WNW,288,1.0,6.0,87,0.00,,,0.02,weatherlink.com 1.10,2013-10-16 17:50:00,
2013-10-16 13:05:00,45.8,42.0,29.98,NNE,23,0.0,7.0,85,0.00,,,0.02,weatherlink.com 1.10,2013-10-16 18:05:00,
2013-10-16 13:20:00,45.9,42.0,29.98,NNE,13,0.0,5.0,85,0.00,,,0.02,weatherlink.com 1.10,2013-10-16 18:20:00,
2013-10-16 13:35:00,45.7,41.0,29.98,NNW,345,0.0,5.0,84,0.00,,,0.02,weatherlink.com 1.10,2013-10-16 18:35:00,
2013-10-16 13:50:00,45.9,41.0,29.98,NE,56,0.0,4.0,83,0.00,,,0.02,weatherlink.com 1.10,2013-10-16 18:50:00,
2013-10-16 14:05:00,46.0,41.0,29.98,West,266,3.0,6.0,83,0.00,,,0.02,weatherlink.com 1.10,2013-10-16 19:05:00,
2013-10-16 14:20:00,46.0,41.0,29.97,WNW,293,2.0,5.0,83,0.00,,,0.02,weatherlink.com 1.10,2013-10-16 19:20:00,
2013-10-16 14:35:00,46.3,41.0,29.97,WSW,257,1.0,4.0,83,0.00,,,0.02,weatherlink.com 1.10,2013-10-16 19:35:00,
2013-10-16 14:50:00,46.2,41.0,29.98,WNW,295,0.0,5.0,82,0.00,,,0.02,weatherlink.com 1.10,2013-10-16 19:50:00,
2013-10-16 15:05:00,46.4,41.0,29.97,West,261,0.0,3.0,82,0.00,,,0.02,weatherlink.com 1.10,2013-10-16 20:05:00,
2013-10-16 15:20:00,46.6,41.0,29.97,West,266,1.0,4.0,81,0.00,,,0.02,weatherlink.com 1.10,2013-10-16 20:20:00,
2013-10-16 15:36:00,47.0,41.0,29.97,NE,39,2.0,5.0,79,0.00,,,0.02,weatherlink.com 1.10,2013-10-16 20:36:00,
2013-10-16 15:51:00,47.4,42.0,29.96,WNW,290,2.0,5.0,80,0.00,,,0.02,weatherlink.com 1.10,2013-10-16 20:51:00,
2013-10-16 16:06:00,47.8,42.0,29.96,West,265,3.0,7.0,79,0.00,,,0.02,weatherlink.com 1.10,2013-10-16 21:06:00,
2013-10-16 16:21:00,47.8,41.0,29.96,West,279,1.0,4.0,77,0.00,,,0.02,weatherlink.com 1.10,2013-10-16 21:21:00,
2013-10-16 16:36:00,47.7,42.0,29.96,NW,309,0.0,3.0,79,0.00,,,0.02,weatherlink.com 1.10,2013-10-16 21:36:00,
2013-10-16 16:51:00,47.4,41.0,29.95,NW,321,0.0,3.0,78,0.00,,,0.02,weatherlink.com 1.10,2013-10-16 21:51:00,
2013-10-16 17:06:00,47.5,40.0,29.95,West,272,4.0,5.0,76,0.00,,,0.02,weatherlink.com 1.10,2013-10-16 22:06:00,
2013-10-16 17:21:00,47.3,40.0,29.95,NW,314,1.0,3.0,77,0.00,,,0.02,weatherlink.com 1.10,2013-10-16 22:21:00,
2013-10-16 17:36:00,47.6,40.0,29.94,West,278,0.0,4.0,76,0.00,,,0.02,weatherlink.com 1.10,2013-10-16 22:36:00,
2013-10-16 17:51:00,47.1,40.0,29.95,North,351,0.0,2.0,76,0.00,,,0.02,weatherlink.com 1.10,2013-10-16 22:51:00,
2013-10-16 18:06:00,46.3,39.0,29.95,North,354,0.0,0.0,77,0.00,,,0.02,weatherlink.com 1.10,2013-10-16 23:06:00,
2013-10-16 18:21:00,44.9,39.0,29.95,North,354,0.0,0.0,81,0.00,,,0.02,weatherlink.com 1.10,2013-10-16 23:21:00,
2013-10-16 18:36:00,43.2,39.0,29.95,North,354,0.0,0.0,85,0.00,,,0.02,weatherlink.com 1.10,2013-10-16 23:36:00,
2013-10-16 18:51:00,41.7,38.0,29.95,North,354,0.0,0.0,87,0.00,,,0.02,weatherlink.com 1.10,2013-10-16 23:51:00,
2013-10-16 19:06:00,40.5,38.0,29.95,North,354,0.0,0.0,90,0.00,,,0.02,weatherlink.com 1.10,2013-10-17 00:06:00,
2013-10-16 19:21:00,40.0,38.0,29.95,North,354,0.0,0.0,92,0.00,,,0.02,weatherlink.com 1.10,2013-10-17 00:21:00,
2013-10-16 19:36:00,40.0,38.0,29.95,North,354,0.0,0.0,92,0.00,,,0.02,weatherlink.com 1.10,2013-10-17 00:36:00,
2013-10-16 19:51:00,39.1,37.0,29.95,North,356,0.0,0.0,92,0.00,,,0.02,weatherlink.com 1.10,2013-10-17 00:51:00,
2013-10-16 20:06:00,38.6,37.0,29.95,North,355,0.0,0.0,94,0.00,,,0.02,weatherlink.com 1.10,2013-10-17 01:06:00,
2013-10-16 20:21:00,38.3,37.0,29.95,North,356,0.0,0.0,94,0.00,,,0.02,weatherlink.com 1.10,2013-10-17 01:21:00,
2013-10-16 20:36:00,38.0,37.0,29.95,North,356,0.0,0.0,95,0.00,,,0.02,weatherlink.com 1.10,2013-10-17 01:36:00,
2013-10-16 20:51:00,38.0,37.0,29.95,North,356,0.0,0.0,95,0.00,,,0.02,weatherlink.com 1.10,2013-10-17 01:51:00,
2013-10-16 21:06:00,37.8,37.0,29.95,North,356,0.0,0.0,95,0.00,,,0.02,weatherlink.com 1.10,2013-10-17 02:06:00,
2013-10-16 21:21:00,37.4,36.0,29.95,North,355,0.0,0.0,95,0.00,,,0.02,weatherlink.com 1.10,2013-10-17 02:21:00,
2013-10-16 21:36:00,37.1,36.0,29.95,SSW,213,0.0,0.0,95,0.00,,,0.02,weatherlink.com 1.10,2013-10-17 02:36:00,
2013-10-16 21:51:00,37.0,36.0,29.95,SW,214,1.0,1.0,95,0.00,,,0.02,weatherlink.com 1.10,2013-10-17 02:51:00,
2013-10-16 22:06:00,37.3,36.0,29.95,SSW,210,0.0,2.0,94,0.00,,,0.02,weatherlink.com 1.10,2013-10-17 03:06:00,
2013-10-16 22:21:00,36.4,35.0,29.96,SW,215,0.0,1.0,93,0.00,,,0.02,weatherlink.com 1.10,2013-10-17 03:21:00,
2013-10-16 22:36:00,36.0,35.0,29.96,SW,233,0.0,1.0,94,0.00,,,0.02,weatherlink.com 1.10,2013-10-17 03:36:00,
2013-10-16 22:51:00,35.9,35.0,29.96,SW,226,0.0,1.0,95,0.00,,,0.02,weatherlink.com 1.10,2013-10-17 03:51:00,
2013-10-16 23:06:00,35.6,34.0,29.95,SSW,208,0.0,1.0,94,0.00,,,0.02,weatherlink.com 1.10,2013-10-17 04:06:00,
2013-10-16 23:21:00,35.1,34.0,29.95,SSW,208,0.0,1.0,95,0.00,,,0.02,weatherlink.com 1.10,2013-10-17 04:21:00,
2013-10-16 23:36:00,35.1,34.0,29.95,SSW,201,0.0,1.0,95,0.00,,,0.02,weatherlink.com 1.10,2013-10-17 04:36:00,
2013-10-16 23:51:00,34.7,34.0,29.94,SSW,196,0.0,0.0,95,0.00,,,0.02,weatherlink.com 1.10,2013-10-17 04:51:00,